Stündliche Wetter Barnstable

Heute, 22 Oktober, Donnerstag

Zeit Temperatur Niederschläge Wind Luftdruck Luftfeuchtigkeit
00:00 +19°C° 0 mm 4 m/S 766 mmHg 96%
01:00 +19°C° 0 mm 4 m/S 766 mmHg 96%
02:00 +18°C° 0 mm 3 m/S 766 mmHg 97%
03:00 +18°C° 0 mm 3 m/S 766 mmHg 97%
04:00 +18°C° 0 mm 3 m/S 766 mmHg 97%
05:00 +18°C° 0 mm 2 m/S 766 mmHg 97%
06:00 +18°C° 0 mm 2 m/S 767 mmHg 96%
07:00 +18°C° 0 mm 2 m/S 767 mmHg 96%
08:00 +19°C° 0 mm 2 m/S 767 mmHg 86%
09:00 +21°C° 0 mm 2 m/S 767 mmHg 76%
10:00 +24°C° 0 mm 2 m/S 767 mmHg 66%
11:00 +23°C° 0 mm 2 m/S 767 mmHg 65%
12:00 +22°C° 0 mm 3 m/S 767 mmHg 64%
13:00 +22°C° 0 mm 3 m/S 767 mmHg 64%
14:00 +21°C° 0 mm 3 m/S 767 mmHg 67%
15:00 +20°C° 0 mm 3 m/S 767 mmHg 70%
16:00 +19°C° 0 mm 3 m/S 767 mmHg 73%
17:00 +18°C° 0 mm 3 m/S 767 mmHg 78%
18:00 +17°C° 0 mm 4 m/S 768 mmHg 83%
19:00 +15°C° 0 mm 4 m/S 768 mmHg 88%
20:00 +15°C° 0 mm 4 m/S 768 mmHg 88%
21:00 +16°C° 0 mm 3 m/S 768 mmHg 89%
22:00 +14°C° 0 mm 3 m/S 768 mmHg 89%
23:00 +14°C° 0 mm 3 m/S 768 mmHg 88%

Morgen, 23 Oktober, Freitag

Zeit Temperatur Niederschläge Wind Luftdruck Luftfeuchtigkeit
00:00 +14°C° 0 mm 4 m/S 768 mmHg 87%
01:00 +14°C° 0 mm 4 m/S 768 mmHg 85%
02:00 +14°C° 0 mm 4 m/S 768 mmHg 83%
03:00 +13°C° 0 mm 4 m/S 768 mmHg 82%
04:00 +13°C° 0 mm 4 m/S 768 mmHg 80%
05:00 +13°C° 0 mm 4 m/S 768 mmHg 79%
06:00 +13°C° 0 mm 4 m/S 768 mmHg 78%
07:00 +13°C° 0 mm 4 m/S 768 mmHg 77%
08:00 +15°C° 0 mm 4 m/S 768 mmHg 72%
09:00 +17°C° 0 mm 4 m/S 767 mmHg 67%
10:00 +19°C° 0 mm 4 m/S 767 mmHg 63%
11:00 +20°C° 0 mm 4 m/S 767 mmHg 61%
12:00 +20°C° 0 mm 4 m/S 766 mmHg 59%
13:00 +21°C° 0 mm 4 m/S 766 mmHg 58%
14:00 +20°C° 0 mm 4 m/S 765 mmHg 62%
15:00 +19°C° 0 mm 4 m/S 765 mmHg 67%
16:00 +17°C° 0 mm 4 m/S 764 mmHg 72%
17:00 +16°C° 0 mm 3 m/S 764 mmHg 77%
18:00 +14°C° 0 mm 3 m/S 764 mmHg 82%
19:00 +13°C° 0 mm 3 m/S 764 mmHg 87%
20:00 +13°C° 0 mm 3 m/S 764 mmHg 90%
21:00 +13°C° 0 mm 3 m/S 763 mmHg 93%
22:00 +13°C° 0 mm 3 m/S 763 mmHg 96%
23:00 +13°C° 0 mm 2 m/S 763 mmHg 96%

übermorgen, 24 Oktober, Samstag

Zeit Temperatur Niederschläge Wind Luftdruck Luftfeuchtigkeit
00:00 +13°C° 0 mm 2 m/S 762 mmHg 96%
01:00 +13°C° 0 mm 1 m/S 762 mmHg 96%
02:00 +13°C° 0 mm 1 m/S 761 mmHg 96%
03:00 +13°C° 0 mm 1 m/S 761 mmHg 96%
04:00 +13°C° 0 mm 1 m/S 760 mmHg 96%
05:00 +13°C° 0 mm 1 m/S 760 mmHg 95%
06:00 +13°C° 0 mm 1 m/S 760 mmHg 94%
07:00 +14°C° 0 mm 1 m/S 760 mmHg 93%
08:00 +15°C° 0 mm 2 m/S 759 mmHg 87%
09:00 +17°C° 0 mm 3 m/S 759 mmHg 82%
10:00 +19°C° 0 mm 3 m/S 758 mmHg 76%
11:00 +20°C° 0 mm 3 m/S 758 mmHg 75%
12:00 +20°C° 0 mm 4 m/S 758 mmHg 74%
13:00 +21°C° 0 mm 4 m/S 757 mmHg 73%
14:00 +20°C° 0 mm 4 m/S 757 mmHg 76%
15:00 +20°C° 0 mm 4 m/S 757 mmHg 79%
16:00 +20°C° 0 mm 4 m/S 757 mmHg 82%
17:00 +19°C° 0 mm 5 m/S 757 mmHg 78%
18:00 +17°C° 0 mm 6 m/S 758 mmHg 75%
19:00 +17°C° 0 mm 7 m/S 758 mmHg 72%
20:00 +15°C° 0 mm 7 m/S 759 mmHg 68%
21:00 +14°C° 0 mm 7 m/S 760 mmHg 65%
22:00 +12°C° 0 mm 8 m/S 760 mmHg 61%
23:00 +11°C° 0 mm 8 m/S 761 mmHg 63%

, 25 Oktober, Sonntag

Zeit Temperatur Niederschläge Wind Luftdruck Luftfeuchtigkeit
00:00 +11°C° 0 mm 7 m/S 761 mmHg 66%
01:00 +10°C° 0 mm 7 m/S 762 mmHg 68%
02:00 +9°C° 0 mm 7 m/S 763 mmHg 67%
03:00 +9°C° 0 mm 7 m/S 763 mmHg 66%
04:00 +9°C° 0 mm 7 m/S 764 mmHg 65%
05:00 +8°C° 0 mm 7 m/S 765 mmHg 64%
06:00 +8°C° 0 mm 7 m/S 765 mmHg 62%
07:00 +8°C° 0 mm 6 m/S 766 mmHg 61%
08:00 +9°C° 0 mm 6 m/S 766 mmHg 59%
09:00 +9°C° 0 mm 6 m/S 767 mmHg 56%
10:00 +10°C° 0 mm 6 m/S 767 mmHg 54%
11:00 +10°C° 0 mm 5 m/S 768 mmHg 54%
12:00 +10°C° 0 mm 5 m/S 768 mmHg 54%
13:00 +10°C° 0 mm 5 m/S 768 mmHg 54%
14:00 +10°C° 0 mm 4 m/S 768 mmHg 55%
15:00 +10°C° 0 mm 4 m/S 768 mmHg 57%
16:00 +8°C° 0 mm 4 m/S 769 mmHg 58%
17:00 +8°C° 0 mm 4 m/S 769 mmHg 59%
18:00 +7°C° 0 mm 4 m/S 770 mmHg 60%
19:00 +7°C° 0 mm 4 m/S 770 mmHg 60%
20:00 +7°C° 0 mm 4 m/S 770 mmHg 61%
21:00 +8°C° 0 mm 4 m/S 770 mmHg 61%
22:00 +8°C° 0 mm 4 m/S 771 mmHg 61%
23:00 +8°C° 0 mm 4 m/S 771 mmHg 61%

25 Oktober, Sonntag

Zeit Temperatur Niederschläge Wind Luftdruck Luftfeuchtigkeit
00:00 +11°C° 0 mm 7 m/S 761 mmHg 66%
01:00 +10°C° 0 mm 7 m/S 762 mmHg 68%
02:00 +9°C° 0 mm 7 m/S 763 mmHg 67%
03:00 +9°C° 0 mm 7 m/S 763 mmHg 66%
04:00 +9°C° 0 mm 7 m/S 764 mmHg 65%
05:00 +8°C° 0 mm 7 m/S 765 mmHg 64%
06:00 +8°C° 0 mm 7 m/S 765 mmHg 62%
07:00 +8°C° 0 mm 6 m/S 766 mmHg 61%
08:00 +9°C° 0 mm 6 m/S 766 mmHg 59%
09:00 +9°C° 0 mm 6 m/S 767 mmHg 56%
10:00 +10°C° 0 mm 6 m/S 767 mmHg 54%
11:00 +10°C° 0 mm 5 m/S 768 mmHg 54%
12:00 +10°C° 0 mm 5 m/S 768 mmHg 54%
13:00 +10°C° 0 mm 5 m/S 768 mmHg 54%
14:00 +10°C° 0 mm 4 m/S 768 mmHg 55%
15:00 +10°C° 0 mm 4 m/S 768 mmHg 57%
16:00 +8°C° 0 mm 4 m/S 769 mmHg 58%
17:00 +8°C° 0 mm 4 m/S 769 mmHg 59%
18:00 +7°C° 0 mm 4 m/S 770 mmHg 60%
19:00 +7°C° 0 mm 4 m/S 770 mmHg 60%
20:00 +7°C° 0 mm 4 m/S 770 mmHg 61%
21:00 +8°C° 0 mm 4 m/S 770 mmHg 61%
22:00 +8°C° 0 mm 4 m/S 771 mmHg 61%
23:00 +8°C° 0 mm 4 m/S 771 mmHg 61%

26 Oktober, Montag

Zeit Temperatur Niederschläge Wind Luftdruck Luftfeuchtigkeit
00:00 +8°C° 0 mm 4 m/S 771 mmHg 61%
01:00 +8°C° 0 mm 4 m/S 771 mmHg 62%
02:00 +8°C° 0 mm 5 m/S 771 mmHg 63%
03:00 +8°C° 0 mm 5 m/S 771 mmHg 65%
04:00 +8°C° 0 mm 5 m/S 771 mmHg 66%
05:00 +9°C° 0 mm 6 m/S 770 mmHg 68%
06:00 +9°C° 0 mm 6 m/S 770 mmHg 69%
07:00 +10°C° 0 mm 7 m/S 770 mmHg 71%
08:00 +10°C° 0.1 mm 7 m/S 770 mmHg 74%
09:00 +10°C° 0.1 mm 7 m/S 769 mmHg 78%
10:00 +11°C° 0.1 mm 7 m/S 769 mmHg 81%
11:00 +11°C° 0.4 mm 7 m/S 769 mmHg 85%
12:00 +12°C° 0.4 mm 7 m/S 768 mmHg 88%
13:00 +12°C° 0.4 mm 7 m/S 767 mmHg 92%
14:00 +15°C° 0.7 mm 8 m/S 766 mmHg 93%
15:00 +16°C° 0.7 mm 8 m/S 766 mmHg 93%
16:00 +17°C° 0.7 mm 8 m/S 765 mmHg 94%
17:00 +17°C° 0.1 mm 8 m/S 765 mmHg 94%
18:00 +18°C° 0.1 mm 8 m/S 765 mmHg 94%
19:00 +18°C° 0.1 mm 7 m/S 765 mmHg 94%
20:00 +18°C° 0 mm 7 m/S 765 mmHg 94%
21:00 +18°C° 0 mm 7 m/S 765 mmHg 94%
22:00 +19°C° 0 mm 6 m/S 765 mmHg 94%
23:00 +18°C° 0 mm 7 m/S 764 mmHg 93%

27 Oktober, Dienstag

Zeit Temperatur Niederschläge Wind Luftdruck Luftfeuchtigkeit
00:00 +18°C° 0 mm 7 m/S 764 mmHg 92%
01:00 +18°C° 0 mm 7 m/S 763 mmHg 92%
02:00 +18°C° 0 mm 8 m/S 763 mmHg 91%
03:00 +18°C° 0 mm 8 m/S 762 mmHg 90%
04:00 +18°C° 0 mm 8 m/S 762 mmHg 90%
05:00 +18°C° 0 mm 8 m/S 762 mmHg 90%
06:00 +18°C° 0 mm 8 m/S 762 mmHg 89%
07:00 +18°C° 0 mm 8 m/S 761 mmHg 89%
08:00 +19°C° 0 mm 9 m/S 761 mmHg 88%
09:00 +19°C° 0 mm 9 m/S 761 mmHg 86%
10:00 +19°C° 0 mm 9 m/S 761 mmHg 84%
11:00 +21°C° 0 mm 8 m/S 761 mmHg 84%
12:00 +21°C° 0 mm 7 m/S 761 mmHg 83%
13:00 +21°C° 0 mm 6 m/S 761 mmHg 82%
14:00 +21°C° 0 mm 6 m/S 761 mmHg 82%
15:00 +20°C° 0 mm 5 m/S 761 mmHg 83%
16:00 +20°C° 0 mm 4 m/S 761 mmHg 84%
17:00 +20°C° 0 mm 4 m/S 761 mmHg 84%
18:00 +20°C° 0 mm 4 m/S 762 mmHg 83%
19:00 +19°C° 0 mm 4 m/S 762 mmHg 83%
20:00 +18°C° 0 mm 4 m/S 762 mmHg 82%
21:00 +17°C° 0 mm 4 m/S 762 mmHg 82%
22:00 +15°C° 0 mm 4 m/S 763 mmHg 81%
23:00 +14°C° 0.3 mm 4 m/S 762 mmHg 84%
Mehr zeigen